Regional Weather Roundup
Issued by NWS

Home | Current Version | Previous Version | Text Only | Print | Product List | Glossary Off
Versions: 1 2 3 4 5 6 7 8 9 10 11 12 13 14 15 16 17 18 19 20 21 22 23 24 25 26 27 28 29 30 31 32 33 34 35 36 37 38 39 40 41 42 43 44 45 46 47 48 49 50

778
ASUS43 KIND 231809
RWRIN

WEATHER ROUNDUP FOR INDIANA
NATIONAL WEATHER SERVICE INDIANAPOLIS IN
200 PM EDT MON MAY 23 2016

NOTE: "FAIR" INDICATES FEW OR NO CLOUDS BELOW 12,000 FEET WITH NO
SIGNIFICANT WEATHER AND/OR OBSTRUCTIONS TO VISIBILITY.

* - STATION DOES NOT REPORT WEATHER SUCH AS PRECIPITATION OR FOG.

+ - STATION NOT QUALITY CONTROLLED BY THE NATIONAL WEATHER SERVICE.
    USE DATA WITH CAUTION...ESPECIALLY DEWPOINT AND RELATIVE
    HUMIDITY OBSERVATIONS.

INZ001>003-010>013-019-020-231900-
NORTHWEST INDIANA

CITY           SKY/WX    TMP DP  RH WIND       PRES   REMARKS
GARY /AIRPORT/ SUNNY     79  48  34 S5        30.03R
KNOX *+        SUNNY     75  21  13 S6        30.03F
LA PORTE +     SUNNY     78  37  22 S5        30.04S
6HR MIN TEMP:  55; 6HR MAX TEMP:  78;

MICHIGAN CITY+ SUNNY     77  41  27 E8        30.03F
MONTICELLO +   MOSUNNY   76  27  16 S6        30.03S
6HR MIN TEMP:  55; 6HR MAX TEMP:  76;

RENSSELAER +   SUNNY     79  32  18 E8G16     30.01F
VALPARAISO     SUNNY     77  37  23 E9        30.03F
6HR MIN TEMP:  53; 6HR MAX TEMP:  78;


$$

LMZ046-743>745-231900-
SOUTHERN LAKE MICHIGAN

STATION/POSITION TIME  TEMP    WIND        PRES    WAVE
                       AIR SEA DIR/SP/G            HT
                 (UTC) (F)     (DEG/KT/KT) (MB)    (FT)
BURNS HARBOR     1700   76     110/  7/ 11 1017.3F
MICHIGAN CITY    1700   73     120/ 12/ 13   N/A
5NW MICH CITY    1800   63 61   30/  6/  8   N/A     0

$$

INZ004-005-014>016-021>024-231900-
NORTH CENTRAL INDIANA

CITY           SKY/WX    TMP DP  RH WIND       PRES   REMARKS
ELKHART        SUNNY     75  45  33 SE5       30.05F
GOSHEN         SUNNY     77  31  18 SE8       30.05F
6HR MIN TEMP:  51; 6HR MAX TEMP:  77; 6HR PCP: TRACE;

LOGANSPORT +   SUNNY     73  37  27 SE3       30.06S
PERU/GRISSOM   SUNNY     74  38  27 VRB6      30.05S
6HR MIN TEMP:  56; 6HR MAX TEMP:  74;

ROCHESTER +    SUNNY     77  39  25 SE5       30.06S
SOUTH BEND     SUNNY     75  40  28 S7        30.05F
6HR MIN TEMP:  53; 6HR MAX TEMP:  75;

WARSAW +       SUNNY     73  34  23 S3        30.06S

$$

INZ006>009-017-018-025>027-231900-
NORTHEAST INDIANA

CITY           SKY/WX    TMP DP  RH WIND       PRES   REMARKS
ANGOLA *+      SUNNY     73  37  27 VRB6      30.06F
AUBURN +       SUNNY     72  30  21 SE3       30.07S
FORT WAYNE     SUNNY     74  27  17 N3        30.07S
6HR MIN TEMP:  52; 6HR MAX TEMP:  74;

HUNTINGTON +   SUNNY    N/A N/A N/A SE3       30.05F

$$

INZ028-029-035-036-043>045-051>053-231900-
WEST CENTRAL INDIANA

CITY           SKY/WX    TMP DP  RH WIND       PRES   REMARKS
CRAWFORDSVL +  SUNNY     74  45  35 E8        30.02F
6HR MIN TEMP:  55; 6HR MAX TEMP:  74;

GREENCASTLE +  SUNNY     73  50  43 E8        30.03F
LAFAYETTE      SUNNY     76  45  33 E13       30.01F
6HR MIN TEMP:  53; 6HR MAX TEMP:  76;

TERRE HAUTE    SUNNY     77  45  32 E10       30.01F
6HR MIN TEMP:  55; 6HR MAX TEMP:  78;


$$

INZ030>032-037>040-046>048-054>057-064-065-231900-
CENTRAL INDIANA

CITY           SKY/WX    TMP DP  RH WIND       PRES   REMARKS
ANDERSON       SUNNY     73  28  19 NE12      30.07F
CP ATTERBURY + SUNNY     73  43  33 E6        30.05F
COLUMBUS       SUNNY     73  39  29 NE6       30.05F
FISHERS *+     SUNNY     73  46  38 CALM      30.05F
FRANKFORT +      N/A     78   9   7 SE3       30.06F
6HR MIN TEMP:  57; 6HR MAX TEMP:  78;

GREENWOOD *+   SUNNY     73  39  29 CALM      30.05F
INDIANAPOLIS   SUNNY     75  41  29 VRB6      30.03F
6HR MIN TEMP:  60; 6HR MAX TEMP:  75;

-EAGLE CREEK   SUNNY     74  41  30 VRB6      30.04F
6HR MIN TEMP:  57; 6HR MAX TEMP:  75;

KOKOMO *+      SUNNY     73  41  31 S5        30.05S
6HR MIN TEMP:  52; 6HR MAX TEMP:  75;

MARION +       SUNNY     73  36  26 CALM      30.06F
SHELBYVILLE    SUNNY     76  34  21 VRB3      30.05F
6HR MIN TEMP:  55; 6HR MAX TEMP:  77;

ZIONSVILLE +   SUNNY     73  42  32 NE7       30.06S
6HR MIN TEMP:  52; 6HR MAX TEMP:  73;


$$

INZ033-034-041-042-049-050-058-059-231900-
EAST CENTRAL INDIANA

CITY           SKY/WX    TMP DP  RH WIND       PRES   REMARKS
MUNCIE         SUNNY     74  31  20 VRB3      30.05F
6HR MIN TEMP:  53; 6HR MAX TEMP:  75;


$$

INZ060-061-067>069-081>083-085>088-231900-
SOUTHWEST INDIANA

CITY           SKY/WX    TMP DP  RH WIND       PRES   REMARKS
EVANSVILLE     SUNNY     78  49  35 VRB6      30.01F
6HR MIN TEMP:  59; 6HR MAX TEMP:  78;

HUNTINGBURG *+ SUNNY     77  45  31 NE12      30.01F
6HR MIN TEMP:  55; 6HR MAX TEMP:  79;

WASHINGTON +   SUNNY     78  49  35 E9        30.00F
6HR MIN TEMP:  55; 6HR MAX TEMP:  78;


$$

INZ062-063-066-070>080-084-089>092-231900-
SOUTH CENTRAL AND SOUTHEAST INDIANA

CITY           SKY/WX    TMP DP  RH WIND       PRES   REMARKS
BEDFORD +      SUNNY     75  55  50 E8        30.02F
BLOOMINGTON    SUNNY     77  46  33 E8        30.02F
6HR MIN TEMP:  54; 6HR MAX TEMP:  77;

MADISON *+     SUNNY     75  34  22 NW3       30.06F
NORTH VERNON + SUNNY     75  45  33 CALM      30.05F
SEYMOUR +      SUNNY     77  45  31 E7        30.03F

$$





USA.gov is the U.S. government's official web portal to all federal, state and local government web resources and services.